AO-07 1 07530U 74089B 23299.72175477 -.00000023 00000-0 14827-3 0 9999 2 07530 101.9623 287.3490 0012143 170.8151 2.6947 12.53668454239899 UO-11 1 14781U 84021B 23299.50489446 .00001892 00000-0 22515-3 0 9999 2 14781 97.6745 271.5050 0009524 123.1991 237.0139 14.85481341113635 AO-16 1 20439U 90005D 23299.57656021 .00000251 00000-0 10837-3 0 9999 2 20439 98.8943 293.2508 0010808 173.3101 306.2435 14.33194755763723 LO-19 1 20442U 90005G 23299.55076211 .00000254 00000-0 10875-3 0 9993 2 20442 98.8607 278.9791 0012229 148.8288 211.3623 14.33350039764163 AO-27 1 22825U 93061C 23299.72020802 .00000161 00000-0 79590-4 0 9996 2 22825 98.8257 344.6360 0009204 49.4333 310.7648 14.30367469569368 IO-26 1 22826U 93061D 23299.55030071 .00000177 00000-0 85159-4 0 9992 2 22826 98.8204 344.3252 0009523 36.2174 323.9652 14.30735374569342 FO-29 1 24278U 96046B 23299.43588240 .00000037 00000-0 70415-4 0 9998 2 24278 98.5486 260.2051 0351203 76.5653 287.4373 13.53158311342685 NOAA-15 1 25338U 98030A 23299.61353569 .00000239 00000-0 11723-3 0 9995 2 25338 98.5956 326.3667 0009303 292.2397 67.7796 14.26418806323748 GO-32 1 25397U 98043D 23299.41282619 .00000158 00000-0 88747-4 0 9990 2 25397 98.8872 258.1039 0002320 103.3315 256.8122 14.23931327314000 ISS 1 25544U 98067A 23299.73834432 .00012114 00000-0 22245-3 0 9996 2 25544 51.6430 36.9300 0000901 114.1509 345.3507 15.49669802422198 NO-44 1 26931U 01043C 23299.81029190 .00000249 00000-0 12592-3 0 9991 2 26931 67.0507 216.9384 0006560 256.6449 103.3921 14.31023098152574 SO-50 1 27607U 02058C 23299.20168216 .00001559 00000-0 23090-3 0 9995 2 27607 64.5544 223.1343 0054406 196.0453 163.8930 14.77814643121589 CO-55 1 27844U 03031E 23299.53913994 .00000473 00000-0 22972-3 0 9999 2 27844 98.6805 304.8992 0010878 103.7224 256.5166 14.22931306 54417 CO-57 1 27848U 03031J 23299.45559746 .00000419 00000-0 20760-3 0 9998 2 27848 98.6839 305.1792 0010707 117.9702 242.2561 14.22421136 54167 RS-22 1 27939U 03042A 23299.76806701 .00001634 00000-0 28791-3 0 9993 2 27939 98.2620 87.9031 0013457 82.0213 28.7363 14.68880008 73858 NOAA-18 1 28654U 05018A 23299.84586688 .00000295 00000-0 18162-3 0 9994 2 28654 98.8992 13.5349 0014269 11.5638 348.5859 14.13038840950168 CO-58 1 28895U 05043F 23299.32948799 .00002057 00000-0 38133-3 0 9995 2 28895 98.1718 70.5703 0016475 22.8438 337.3495 14.66274550960021 CO-65 1 32785U 08021C 23299.77169730 .00005526 00000-0 52824-3 0 9993 2 32785 97.7228 263.1261 0012847 34.4633 325.7417 14.93583424840529 AAUSAT2 1 32788U 08021F 23299.36176594 .00015356 00000-0 10172-2 0 9998 2 32788 97.5737 276.2361 0004590 266.9451 93.1252 15.07391165842842 DO-64 1 32789U 08021G 23299.58439892 .00425246 00000-0 28995-2 0 9991 2 32789 97.2799 322.4319 0002946 99.3005 260.8593 15.73630204847828 CO-66 1 32791U 08021J 23299.36474008 .00007595 00000-0 63482-3 0 9992 2 32791 97.6715 268.1198 0011119 341.0570 19.0238 14.98738477841292 RS-30 1 32953U 08025A 23299.79164577 -.00000002 00000-0 -86708-4 0 9995 2 32953 82.5038 235.2284 0018209 258.3050 101.5986 12.43131026700009 PRISM 1 33493U 09002B 23299.63497378 .00012289 00000-0 76104-3 0 9998 2 33493 98.2386 323.6450 0013962 330.3815 29.6620 15.09873246803569 NOAA-19 1 33591U 09005A 23299.55297960 .00000248 00000-0 15800-3 0 9994 2 33591 99.0842 347.4867 0013167 230.7275 129.2729 14.12850117758493 SRMSAT 1 37841U 11058D 23299.28671324 .00000507 00000-0 13299-3 0 9995 2 37841 19.9707 137.3435 0011862 32.7388 124.7536 14.10969573621342 HRBE 1 37855U 11061F 23299.61116585 .00036514 00000-0 90386-3 0 9993 2 37855 101.7047 336.4219 0100181 355.3973 4.6323 15.35259145657134 RS-40 1 38735U 12041C 23299.55582249 .00000003 00000-0 -47003-4 0 9991 2 38735 82.4731 316.1830 0017559 14.4494 345.7084 12.42597198510036 ZACUBE-1 1 39417U 13066B 23299.78169379 .00004221 00000-0 47434-3 0 9999 2 39417 97.7024 257.0412 0052394 212.6798 147.1173 14.86251518536733 Delfi-N3xt 1 39428U 13066N 23299.31778563 .00004501 00000-0 62694-3 0 9997 2 39428 97.8327 219.6162 0109064 126.8312 234.2961 14.74176375531443 GOMX-1 1 39430U 13066Q 23299.64959534 .00002844 00000-0 49316-3 0 9999 2 39430 97.7595 183.0507 0142279 277.4204 81.0851 14.62570635528746 LO-74 1 39440U 13066AA 23299.81051913 .00005649 00000-0 71009-3 0 9993 2 39440 97.7854 244.4299 0072529 320.1356 39.4542 14.80617208534827 AO-73 1 39444U 13066AE 23299.78406930 .00005496 00000-0 58675-3 0 9990 2 39444 97.6885 259.7293 0050809 196.0626 163.8982 14.88260925535799 SPROUT 1 39770U 14029E 23299.37035653 .00036770 00000-0 22671-2 0 9992 2 39770 97.9996 71.2548 0006255 239.9129 120.1479 15.09827528511892 DTUSAT-2 1 40030U 14033W 23299.37603898 .00005683 00000-0 52994-3 0 9991 2 40030 97.9776 241.7805 0009423 207.9714 152.1001 14.94608016507583 EO-80 1 40032U 14033Y 23299.28392023 .00005121 00000-0 47777-3 0 9998 2 40032 97.9781 241.7034 0009072 208.9474 151.1244 14.94634197507542 HODOYOSHI-1 1 40299U 14070B 23299.56477700 .00016360 00000-0 44685-3 0 9993 2 40299 97.1787 358.9994 0010198 158.8501 201.3168 15.37425471498943 GRIFEX 1 40379U 15003D 23299.46681985 .00081404 00000-0 10652-2 0 9997 2 40379 99.0838 269.4086 0059778 169.8824 190.3644 15.56175411483672 XW-2C 1 40906U 15049H 23299.76494533 .00018560 00000-0 62960-3 0 9990 2 40906 97.4935 307.6893 0012747 64.0799 296.1754 15.30501152448496 XW-2D 1 40907U 15049J 23299.77772828 .00023769 00000-0 73580-3 0 9995 2 40907 97.4905 308.6683 0011488 58.2098 302.0262 15.33404037448612 LILACSAT-2 1 40908U 15049K 23299.57240660 .00007521 00000-0 33489-3 0 9990 2 40908 97.5284 302.4499 0015521 91.9662 268.3351 15.21642936447761 XW-2E 1 40909U 15049L 23299.61717256 .00059927 00000-0 10621-2 0 9995 2 40909 97.4440 316.5652 0006981 31.3156 328.8510 15.50039474449410 XW-2F 1 40910U 15049M 23299.54747707 .00059143 00000-0 10806-2 0 9998 2 40910 97.4539 315.7537 0007733 33.1253 327.0480 15.49168475449260 XW-2B 1 40911U 15049N 23299.53481747 .00020952 00000-0 65564-3 0 9995 2 40911 97.4883 308.7691 0011607 60.1950 300.0444 15.33085661448454 DCBB 1 40912U 15049P 23299.59018313 .00105860 00000-0 12529-2 0 9991 2 40912 97.4025 321.2232 0003505 338.8873 21.2239 15.60907601449970 IO-86 1 40931U 15052B 23299.46609700 .00001371 00000-0 99425-4 0 9992 2 40931 5.9994 229.2979 0013123 352.5880 7.4054 14.77434337436686 ChubuSat-2 1 41338U 16012B 23299.50047050 .00005092 00000-0 34145-3 0 9991 2 41338 31.0012 97.5649 0012264 47.1491 313.0175 15.05248900422179 ChubuSat-3 1 41339U 16012C 23299.57858239 .00004596 00000-0 30978-3 0 9996 2 41339 31.0078 94.4883 0012148 54.6681 305.5090 15.04990910422179 Horyu-4 1 41340U 16012D 23299.03523138 .00009568 00000-0 56416-3 0 9995 2 41340 31.0039 60.3763 0011450 113.5215 246.6628 15.10236474422504 e-st@r-II 1 41459U 16025D 23299.54837324 .00052040 00000-0 11189-2 0 9991 2 41459 98.1664 155.0129 0086675 0.0016 0.1213 15.40496537413044 Lapan A3 1 41603U 16040E 23299.60891565 .00003293 00000-0 14146-3 0 9996 2 41603 97.1589 319.1146 0011560 204.4978 155.5711 15.23291893407499 Pratham 1 41783U 16059A 23299.58314535 .00000924 00000-0 18256-3 0 9993 2 41783 97.8588 324.8061 0033864 46.3207 314.0794 14.64236963378202 TY-1 1 41844U 16066D 23299.56811286 .00530888 11460-3 14994-2 0 9998 2 41844 97.3500 324.9048 0003125 211.0066 149.1025 15.93446954388241 CAS-2T 1 41847U 16066G 23299.77978421 .00002453 00000-0 36891-3 0 9997 2 41847 98.4914 7.6595 0358327 162.2746 199.1330 14.40219375365746 CAS-4B 1 42759U 17034B 23299.59810163 .00013051 00000-0 59834-3 0 9992 2 42759 43.0134 103.7577 0012210 240.6626 119.3003 15.20297711351614 CAS-4A 1 42761U 17034D 23299.54748966 .00012800 00000-0 58628-3 0 9992 2 42761 43.0130 102.5483 0013040 241.3926 118.5612 15.20334071351606 NIUSat 1 42766U 17036B 23299.60566814 .00046537 00000-0 85088-3 0 9990 2 42766 97.1430 328.6321 0006933 359.1571 0.9668 15.49211376352882 Aalto 1 1 42775U 17036L 23299.53817296 .00028872 00000-0 67937-3 0 9990 2 42775 97.1399 326.2159 0008063 5.4728 354.6607 15.41891974352714 URSA MAIOR 1 42776U 17036M 23299.06861417 .00033921 00000-0 71740-3 0 9991 2 42776 97.1407 327.5799 0007333 2.7560 357.3728 15.45046263352746 Max Valier Sat 1 42778U 17036P 23299.60837291 .00033938 00000-0 67622-3 0 9998 2 42778 97.1387 331.8851 0005889 1.0703 359.0559 15.46803129352987 Pegasus 1 42784U 17036V 23299.60143478 .00116067 00000-0 11398-2 0 9995 2 42784 97.1293 336.6655 0002543 340.0049 20.1111 15.65670518353399 SKCUBE 1 42789U 17036AA 23299.06610256 .00404035 00000-0 14859-2 0 9993 2 42789 97.1171 339.9767 0002048 262.6010 97.5030 15.87283363353565 VENTA 1 1 42791U 17036AC 23299.58952409 .00123730 00000-0 11885-2 0 9998 2 42791 97.1280 337.9220 0001900 346.0176 14.1031 15.66201978353450 D-SAT 1 42794U 17036AF 23299.47221517 .00003176 00000-0 24654-3 0 9998 2 42794 97.4772 285.6182 0112084 219.1918 140.1150 14.97174561345596 TechnoSat 1 42829U 17042E 23299.52989973 .00003034 00000-0 28559-3 0 9998 2 42829 97.3820 129.1644 0013950 139.5888 220.6373 14.94476068342105 AO-91 1 43017U 17073E 23299.59762747 .00010721 00000-0 72172-3 0 9998 2 43017 97.6083 178.7736 0226419 355.0672 4.8314 14.88273084320719 AO-92 1 43137U 18004AC 23299.46264160 .00099420 00000-0 11562-2 0 9996 2 43137 97.3148 21.1543 0003204 4.0724 356.0560 15.61390200322676 TianYi 2 1 43155U 18008A 23299.38879384 .00029522 00000-0 95026-3 0 9995 2 43155 97.2816 349.1629 0010973 196.0925 163.9970 15.32116225318699 Zhou Enlai 1 43156U 18008B 23299.45270935 .00035650 00000-0 10980-2 0 9995 2 43156 97.2863 349.6001 0008634 195.3373 164.7610 15.33509023318649 TianYi 6 1 43158U 18008D 23299.59992294 .00023024 00000-0 83289-3 0 9996 2 43158 97.2895 345.9383 0009054 199.4733 160.6163 15.28392426318458 S-Net D 1 43186U 18014G 23299.71285252 .00004091 00000-0 31894-3 0 9995 2 43186 97.6073 200.9564 0015395 89.6484 270.6504 15.01636960313282 S-Net B 1 43187U 18014H 23299.71435919 .00004211 00000-0 32818-3 0 9994 2 43187 97.6084 200.8869 0015912 86.6720 273.6325 15.01636158313280 S-Net A 1 43188U 18014J 23299.31442674 .00004123 00000-0 32141-3 0 9998 2 43188 97.6088 200.5913 0015885 88.1522 272.1522 15.01636233313229 S-Net C 1 43189U 18014K 23299.31719440 .00004250 00000-0 33105-3 0 9999 2 43189 97.6109 200.4891 0016942 82.2714 278.0433 15.01636740311778 CubeBel-1 1 43666U 18083E 23299.76569541 .00083754 00000-0 14404-2 0 9995 2 43666 97.3656 333.0432 0006646 18.8191 341.3306 15.50798022277499 Changshagaoxin 1 43669U 18083H 23299.74467982 .00051810 00000-0 11324-2 0 9998 2 43669 97.3674 326.7228 0006254 30.1601 330.0006 15.43987993277178 Ten-Koh 1 43677U 18084G 23299.40429506 .00003423 00000-0 32655-3 0 9999 2 43677 98.0319 81.9259 0015837 76.2035 284.0946 14.93932231271640 PO-101 1 43678U 18084H 23299.55618752 .00002368 00000-0 22761-3 0 9993 2 43678 98.0423 86.3759 0010651 87.9152 272.3286 14.94000113271877 QO-100 1 43700U 18090A 23299.07757819 .00000139 00000-0 00000-0 0 9994 2 43700 0.0154 214.8620 0001580 27.6498 205.3772 1.00271298 17991 MinXSS-2 1 43758U 18099A 23299.18574558 .00008107 00000-0 59309-3 0 9997 2 43758 97.5907 0.7071 0019357 42.5036 317.7685 15.03706079267411 AO-95 1 43770U 18099N 23299.11996599 .00006593 00000-0 51116-3 0 9992 2 43770 97.5792 357.2818 0015225 74.9979 285.2929 15.01629928267247 RANGE-B 1 43772U 18099Q 23299.15517235 .00007666 00000-0 56079-3 0 9999 2 43772 97.5604 0.3739 0005855 11.9358 348.2005 15.03863166267330 RANGE-A 1 43773U 18099R 23299.10393056 .00004336 00000-0 35589-3 0 9992 2 43773 97.5480 354.7669 0013545 48.8495 311.3895 14.99647027267177 MOVE-II 1 43780U 18099Y 23299.33426400 .00014458 00000-0 96676-3 0 9995 2 43780 97.5569 0.7481 0009045 69.6060 290.6138 15.07029587267468 SNUSat 2 1 43782U 18099AA 23299.17026894 .00005475 00000-0 42936-3 0 9991 2 43782 97.5551 357.6537 0017216 13.0996 347.0672 15.01243656267275 SnugLite 1 43784U 18099AC 23299.79941548 .00006195 00000-0 47796-3 0 9992 2 43784 97.5282 357.8540 0006644 37.1497 323.0186 15.01908851267415 ITASat 1 1 43786U 18099AE 23299.16454956 .00004926 00000-0 38985-3 0 9997 2 43786 97.5543 358.1750 0020393 57.9002 302.4198 15.00893529267286 EAGLET 1 1 43790U 18099AJ 23299.38711334 .00004792 00000-0 38675-3 0 9999 2 43790 97.5619 358.7630 0016901 52.2380 308.0372 15.00210541267042 ESEO 1 43792U 18099AL 23299.15647587 .00001837 00000-0 15913-3 0 9991 2 43792 97.5534 356.5929 0013102 47.4227 312.8100 14.98253079266997 CSIM 1 43793U 18099AM 23299.72837296 .00013317 00000-0 88269-3 0 9993 2 43793 97.5635 2.6251 0015418 42.9837 317.2592 15.07311731267374 JO-97 1 43803U 18099AX 23298.91765783 .00007103 00000-0 53551-3 0 9998 2 43803 97.5573 358.2225 0011132 27.8353 332.3465 15.02708680267311 Suomi 100 1 43804U 18099AY 23299.74555291 .00005893 00000-0 44888-3 0 9999 2 43804 97.5642 358.8229 0018413 26.6940 333.5229 15.02304530267437 CHOMPTT 1 43855U 18104G 23299.59488797 .00053901 00000-0 97354-3 0 9990 2 43855 85.0235 76.1864 0009157 180.9508 179.1733 15.49465847270851 ISAT 1 43879U 18111D 23299.68172242 .00009606 00000-0 68555-3 0 9993 2 43879 97.6317 202.3836 0016248 78.2094 282.0953 15.04632435262070 UWE-4 1 43880U 18111E 23299.30242112 .00007673 00000-0 55376-3 0 9997 2 43880 97.6211 202.5189 0020003 87.8595 272.4921 15.04229235264063 Sparrow 1 43881U 18111F 23299.72238264 .00008610 00000-0 60901-3 0 9999 2 43881 97.6383 203.9417 0013132 113.8557 246.4047 15.05039198262152 Lume 1 1 43908U 18111AJ 23299.59935431 .00083099 00000-0 99486-3 0 9998 2 43908 97.1121 181.8088 0012656 80.6050 279.6638 15.60599019269777 FO-99 1 43937U 19003F 23299.56909474 .00474333 87671-4 15345-2 0 9995 2 43937 97.0613 327.3368 0007368 145.9999 214.1749 15.90768220266592 AstroCast 0.2 1 44083U 19018F 23299.68880745 .00360919 00000-0 14117-2 0 9993 2 44083 97.2422 2.7551 0003722 221.9246 138.1741 15.86106199254942 AISTechSat 3 1 44103U 19018AB 23299.73092809 .00058248 00000-0 98729-3 0 9999 2 44103 97.2343 357.9498 0007414 147.7562 212.4145 15.51306579254827 AISat 1 1 44104U 19018AC 23299.57270934 .00040530 00000-0 59928-3 0 9992 2 44104 97.3728 33.9267 0033932 136.4446 223.9496 15.54522629256075 Prox-1 1 44339U 19036A 23299.63821429 .00008973 00000-0 17268-2 0 9995 2 44339 24.0007 287.6261 0009122 273.4015 86.5434 14.61540118230923 Move-IIb 1 44398U 19038N 23299.76799676 .00265959 00000-0 23503-2 0 9992 2 44398 97.6651 290.9326 0012938 140.8167 219.4032 15.67744012239052 SONATE 1 44400U 19038Q 23299.52186592 .00012221 00000-0 49442-3 0 9990 2 44400 97.6976 280.2685 0017941 206.5340 153.4980 15.24718087238221 BeeSat 9 1 44412U 19038AC 23299.41954048 .00040276 00000-0 10453-2 0 9990 2 44412 97.6839 285.1968 0012485 179.6787 180.4468 15.38797653238270 JAISAT-1 1 44419U 19038F 23299.47778927 .00038810 00000-0 10027-2 0 9991 2 44419 97.6825 286.3813 0012247 175.3481 184.7880 15.38948073238666 Taurus 1 1 44530U 19059C 23299.60391027 .00005534 00000-0 13920-2 0 9997 2 44530 98.5625 49.6019 0012565 54.4776 305.7588 14.51566246217695 Duchifat 3 1 44854U 19089C 23299.55503222 .00011457 00000-0 71358-3 0 9996 2 44854 36.9621 24.7159 0007272 318.2352 41.7838 15.09019504212734 OPS-SAT 1 44878U 19092F 23299.80612810 .00041131 00000-0 94120-3 0 9992 2 44878 97.4671 130.9314 0007974 28.6438 331.5245 15.42660565214028 TO-108 1 44881U 19093C 23299.55650261 .00001209 00000-0 15544-3 0 9996 2 44881 97.8523 15.7331 0014908 14.9910 345.1742 14.82906958208263 FloripaSat 1 1 44885U 19093G 23299.75508235 .00004676 00000-0 52611-3 0 9992 2 44885 97.8610 19.5066 0013431 13.4683 346.6888 14.87097151208495 RS-44 1 44909U 19096E 23299.41092616 .00000008 00000-0 -62664-5 0 9993 2 44909 82.5186 260.7366 0216311 240.0414 117.9056 12.79723634178949 BY70-2 1 45857U 20042B 23299.53936414 .00029498 00000-0 25345-2 0 9990 2 45857 97.9182 20.4071 0008322 289.0580 70.9739 14.97353891179145 UPMSat 2 1 46276U 20061E 23299.14741948 .00011313 00000-0 43862-3 0 9992 2 46276 97.3328 4.1207 0000969 151.4032 208.7260 15.26294337174248 AmicalSat 1 46287U 20061R 23299.11734512 .00016601 00000-0 68234-3 0 9995 2 46287 97.3861 3.3941 0002015 27.8060 332.3285 15.24246809173620 SALSAT 1 46495U 20068K 23299.79833188 .00006695 00000-0 42282-3 0 9993 2 46495 97.7848 249.4142 0016383 39.1229 321.1180 15.09302759168918 CAPE 3 1 47309U 21002A 23299.46854360 .00086442 00000-0 12506-2 0 9999 2 47309 60.6705 269.2882 0022811 21.6072 338.5988 15.55056367154599 AO-109 1 47311U 21002C 23299.39340864 .00057477 00000-0 10476-2 0 9993 2 47311 60.6763 270.9996 0020901 21.4360 338.7609 15.48833951154537 ExoCube 2 1 47319U 21002L 23299.28038936 .00054505 00000-0 10376-2 0 9991 2 47319 60.6736 274.2998 0021758 20.0656 340.1293 15.47587412154430 UVSQ-SAT 1 47438U 21006AB 23299.71130157 .00023435 00000-0 81677-3 0 9994 2 47438 97.3681 355.2337 0008079 345.4149 14.6857 15.29617223152719 YUSAT 1 1 47439U 21006AC 23299.71905731 .00033341 00000-0 10125-2 0 9999 2 47439 97.3688 356.6534 0007080 339.1823 20.9131 15.33983635152804 SOMP 2b 1 47445U 21006AJ 23299.70678446 .00020951 00000-0 75322-3 0 9999 2 47445 97.3648 354.2554 0008201 351.8300 8.2805 15.28623629152670 IDEASSat 1 47458U 21006AX 23299.09903976 .00018190 00000-0 67559-3 0 9999 2 47458 97.3747 354.4520 0007701 354.7206 5.3951 15.27584945152553 CubeSX-Sirius-HSE 1 47951U 21022V 23299.59746768 .00014440 00000-0 73902-3 0 9997 2 47951 97.4804 194.9432 0015399 236.4118 123.5645 15.16624945142921 CubeSX-HSE 1 47952U 21022W 23299.56474099 .00013129 00000-0 67096-3 0 9990 2 47952 97.4804 194.9707 0015186 235.4695 124.5105 15.16700014142924 KSU-Cubesat 1 47954U 21022Y 23299.65925786 .00015793 00000-0 77749-3 0 9991 2 47954 97.4810 195.6555 0014442 232.6633 127.3285 15.17977973142692 GRBAlpha 1 47959U 21022AD 23299.74191985 .00014678 00000-0 74763-3 0 9996 2 47959 97.4805 195.2513 0015126 235.4700 124.5106 15.16791295141776 Orbicraft-Zorkiy 1 47960U 21022AE 23299.76059930 .00014899 00000-0 73768-3 0 9992 2 47960 97.4841 195.9143 0014622 233.0764 126.9131 15.17789000142494 STECCO 1 47962U 21022AG 23299.73178470 .00035181 00000-0 13243-2 0 9990 2 47962 97.4813 199.6561 0008895 204.8712 155.2099 15.26994378142061 MO-110 1 47964U 21022AJ 23299.56612795 .00034786 00000-0 12618-2 0 9991 2 47964 97.4829 200.3087 0010719 201.1155 158.9643 15.28203593142083 FEES 1 48082U 21022AL 23299.24777474 .00091465 00000-0 20874-2 0 9994 2 48082 97.4792 203.0691 0007428 158.7916 201.3641 15.42517125141940 TUBIN 1 48900U 21059X 23299.75839951 .00013135 00000-0 57157-3 0 9991 2 48900 97.6172 74.5856 0008411 179.0062 181.1192 15.22345486129172 IT-SPINS 1 49017U 21013G 23299.22437220 .00068100 00000-0 96896-3 0 9991 2 49017 51.5858 150.9920 0005333 137.6727 222.4676 15.55707589130003 LEDSAT 1 49069U 21073D 23299.19152710 .00010921 00000-0 55146-3 0 9999 2 49069 97.4705 7.9850 0023119 29.4892 330.7640 15.17031141120742 CUTE 1 49263U 21088D 23299.17058398 .00011728 00000-0 69111-3 0 9999 2 49263 97.5314 2.8502 0017283 168.6654 191.4968 15.11618192114053 TeikyoSat 4 1 49396U 21102B 23299.59238269 .00002027 00000-0 15522-3 0 9995 2 49396 97.4987 347.4541 0013733 5.6356 354.5021 15.02895401107505 Z-Sat 1 49399U 21102E 23299.56855371 .00004075 00000-0 28312-3 0 9990 2 49399 97.4684 348.6057 0021069 344.8674 15.1921 15.05909629107655 KOSEN 1 1 49402U 21102H 23299.60839588 .00005194 00000-0 33989-3 0 9991 2 49402 97.4622 349.4104 0019335 332.6899 27.3311 15.08036186107752 HO-113 1 50466U 21131B 23299.58497328 .00000736 00000-0 25213-3 0 9992 2 50466 98.5451 20.6901 0005329 105.8829 254.2946 14.39140191 96252 Tevel-3 1 50988U 22002E 23299.54014785 .00034343 00000-0 11049-2 0 9999 2 50988 97.4188 6.0715 0007213 127.0926 233.0976 15.32133787 98825 Tevel-8 1 50989U 22002F 23299.76104909 .00035451 00000-0 11426-2 0 9992 2 50989 97.4206 6.3662 0007226 125.7353 234.4562 15.32069784 98858 Tevel-5 1 50998U 22002Q 23299.46759861 .00034378 00000-0 10659-2 0 9996 2 50998 97.4184 6.5655 0008078 121.9598 238.2430 15.33310023 98854 Tevel-6 1 50999U 22002R 23299.46640953 .00033866 00000-0 10505-2 0 9999 2 50999 97.4182 6.5552 0008092 121.7737 238.4295 15.33298430 98856 Tevel-1 1 51013U 22002AF 23299.55458051 .00033965 00000-0 10951-2 0 9998 2 51013 97.4178 6.0044 0007148 127.2416 232.9479 15.32068096 98828 NO-116 1 51031U 22002AZ 23299.15200722 .00088438 00000-0 16608-2 0 9994 2 51031 97.4287 10.9627 0005424 121.6196 238.5584 15.48275340 99041 IRIS-A 1 51044U 22002BN 23299.40517851 .00013755 00000-0 59390-3 0 9996 2 51044 97.4205 3.0081 0008530 135.0963 225.0965 15.22590423 98603 Tevel-7 1 51062U 22002CG 23299.56391816 .00032842 00000-0 10585-2 0 9994 2 51062 97.4200 6.1390 0007198 126.1229 234.0679 15.32086952 98824 Tevel-4 1 51063U 22002CH 23299.57584742 .00032100 00000-0 10376-2 0 9993 2 51063 97.4197 6.1174 0007246 125.9163 234.2752 15.31997794 98826 Tevel-2 1 51069U 22002CP 23299.54135817 .00035237 00000-0 11331-2 0 9997 2 51069 97.4186 6.0409 0007138 126.8468 233.3429 15.32145514 98825 DELFI-PQ 1 51074U 22002CU 23299.16547120 .00132296 00000-0 19185-2 0 9993 2 51074 97.4418 14.5339 0005399 150.0250 210.1314 15.55368818 99208 SO-115 1 51080U 22002DA 23298.98573637 .00038478 00000-0 10474-2 0 9990 2 51080 97.4472 10.6259 0009107 152.6771 207.4954 15.37370968 98926 SO-114 1 51081U 22002DB 23298.43253020 .00037869 00000-0 10202-2 0 9994 2 51081 97.4462 10.0705 0009127 154.7772 205.3920 15.37695240 98846 OreSat0 1 52017U 22026K 23299.45604359 .00026710 00000-0 89112-3 0 9998 2 52017 97.5101 302.7579 0018377 349.8525 10.2342 15.30878448 89585 Planetum 1 1 52738U 22057G 23299.80489749 .00023483 00000-0 93711-3 0 9999 2 52738 97.5495 56.2066 0006029 248.8721 111.1872 15.25156506 78686 Foresail-1 1 52766U 22057AL 23299.25629118 .00013990 00000-0 60167-3 0 9996 2 52766 97.5626 56.4599 0010647 231.3845 128.6439 15.22707715 78606 SNUGLITE 2 1 52899U 22065F 23299.36948917 .00001698 00000-0 36515-3 0 9997 2 52899 98.0887 80.7440 0008220 159.3802 200.7731 14.59755945 69995 CTIM 1 52950U 22074G 23299.55354028 .00241394 00000-0 19817-2 0 9994 2 52950 44.9982 335.0276 0014099 37.5364 322.6516 15.68870626 74012 IO-117 1 53106U 22080B 23297.23570311 -.00000003 00000-0 00000-0 0 9996 2 53106 70.1394 274.8642 0008335 161.2568 198.8399 6.42557213 30041 SelfieSat 1 53951U 22057BC 23299.31202980 .00030990 00000-0 11208-2 0 9994 2 53951 97.5537 56.8887 0007766 243.4641 116.5803 15.28352571 78663 FO-118 1 54684U 22167C 23299.58125972 .00017600 00000-0 86549-3 0 9998 2 54684 97.5791 76.7316 0012031 241.1063 118.8964 15.18022618 48587 SSS-2B 1 56184U 23054G 23299.51112137 .00020053 00000-0 75740-3 0 9990 2 56184 97.3924 192.8819 0007598 303.3915 56.6597 15.27010677 30187 CIRBE 1 56188U 23054L 23299.28287952 .00028502 00000-0 10188-2 0 9997 2 56188 97.3877 192.7599 0005978 295.1803 64.8817 15.28764848 30167 INSPIRE-Sat 7 1 56211U 23054AK 23299.25829568 .00027942 00000-0 93674-3 0 9995 2 56211 97.3895 193.3082 0009610 269.9203 90.0937 15.30831941 30197 RoseyCubesat 1 1 56212U 23054AL 23299.54300428 .00029925 00000-0 98193-3 0 9991 2 56212 97.3904 193.7058 0009695 267.6673 92.3458 15.31508683 30249 ARKSAT 1 1 56311U 98067VC 23299.47542155 .01374376 12791-2 13744-2 0 9998 2 56311 51.6218 15.7189 0011013 351.6702 8.4127 16.10614607 29007 Ex-Alta 2 1 56313U 98067VE 23299.42609735 .02453092 11859-4 12826-2 0 9993 2 56313 51.6145 15.3266 0009972 348.2948 11.7836 16.19352152 29024 NEUDOSE 1 56315U 98067VG 23299.49738724 .00246003 00000-0 11630-2 0 9997 2 56315 51.6285 22.7084 0006049 328.1277 31.9358 15.81757606 28916 YukonSat 1 56316U 98067VH 23299.46132239 .00447168 88332-4 13052-2 0 9997 2 56316 51.6279 19.4274 0008315 342.8879 17.1846 15.92205715 28978 URESAT-1 1 56992U 23084BU 23299.55094162 .00018541 00000-0 97172-3 0 9993 2 56992 97.5168 54.1730 0017283 124.2629 236.0243 15.15703163 20516 MRC-100 1 56993U 23084BV 23299.28033652 .00020473 00000-0 10640-2 0 9992 2 56993 97.5177 53.9313 0017096 125.6822 234.6005 15.15982198 20486 UmKA 1 (RS40S) 1 57172U 23091G 23299.51214694 .00004288 00000-0 30982-3 0 9991 2 57172 97.6487 349.0185 0017449 195.8310 164.2373 15.04479691 18176 CubeBel-2 (EU11S) 1 57175U 23091K 23299.55203772 .00006657 00000-0 48224-3 0 9993 2 57175 97.6501 348.9573 0015875 208.1619 151.8750 15.04198487 18178 /EX